Wind_Speed
7 6 6 6 6 6 7 7 8 9 10 10 11 11 11 11 11 11 11 11 10 10 10 10 10 10 10 9 9 10 10 10 11 12 13 14 15 16 17 18 19 20 21
7 7 7 7 7 7 8 9 9 10 11 11 12 12 12 12 12 12 12 12 12 12 12 11 11 11 12 12 12 12 12 12 13 13 14 15 16 17 18 19 20 21 22
8 8 8 8 8 9 10 11 11 12 13 13 13 13 13 13 14 14 14 14 14 14 14 14 14 14 14 14 14 14 14 15 15 16 16 17 18 19 20 20 20 21 22
9 10 10 10 10 11 12 12 13 14 14 14 15 15 15 15 15 15 16 16 16 16 16 16 16 17 17 17 17 17 17 17 18 18 19 19 20 21 22 22 22 23 24
11 12 12 12 12 13 13 14 15 15 15 16 16 17 17 17 17 17 17 18 18 19 19 19 19 19 19 19 19 19 20 20 20 21 22 22 22 23 24 25 25 25 26
13 13 14 14 15 15 15 16 17 17 18 18 18 19 19 20 20 20 21 21 21 21 22 22 22 22 22 21 21 21 22 22 23 23 24 24 25 26 26 27 28 28 28
15 16 16 17 17 17 18 18 19 19 20 20 21 21 22 22 23 23 24 24 24 24 24 24 24 24 24 24 24 24 24 24 25 26 26 27 27 28 28 29 29 30 30
17 18 19 19 19 20 20 21 21 22 22 23 24 24 24 24 25 25 26 26 26 26 26 26 26 27 27 27 27 26 27 27 28 28 29 29 30 30 30 30 31 31 32
18 19 20 20 21 22 22 23 24 24 25 25 26 26 26 27 27 27 28 28 29 29 29 29 29 29 30 30 30 30 30 30 31 31 32 32 32 32 33 33 33 33 33
20 21 22 23 23 24 25 25 26 27 27 28 28 28 28 29 30 30 31 31 31 32 32 32 33 33 33 33 34 34 34 34 34 34 34 35 35 35 36 36 36 36 36
22 23 24 25 25 26 27 28 29 29 30 30 31 31 32 32 33 33 33 34 34 35 35 36 36 36 37 37 38 38 38 38 37 37 37 37 38 38 39 39 39 39 39
24 25 26 27 27 28 29 30 31 31 32 33 33 34 34 35 35 36 36 37 38 38 39 39 39 40 40 40 41 41 41 41 41 41 41 41 41 41 42 42 42 42 42
26 27 27 28 29 30 31 32 33 34 35 35 36 36 37 38 38 38 39 40 40 41 41 42 42 43 43 43 43 43 44 44 44 44 44 45 45 45 45 45 45 45 45
29 29 30 30 31 32 33 34 35 36 37 38 39 40 40 40 41 41 41 42 43 43 43 44 44 45 45 45 46 46 46 47 47 48 48 48 48 49 49 49 49 49 48
31 31 32 32 33 34 36 37 38 38 39 40 41 42 42 42 42 43 44 44 45 45 45 46 47 47 47 47 47 47 48 48 49 50 50 51 51 51 52 52 52 52 51
33 33 34 34 35 37 38 39 40 41 42 43 43 43 43 44 44 45 46 46 47 48 48 48 48 49 49 49 49 49 50 50 51 52 52 53 53 53 53 53 54 53 53
35 35 36 37 38 39 40 41 42 42 43 43 44 45 45 46 47 48 48 49 50 50 51 51 51 51 51 51 52 52 52 52 53 54 54 55 55 54 54 54 55 55 55
36 37 38 39 40 41 42 43 44 44 45 45 46 47 48 48 49 50 51 51 52 52 53 53 54 54 54 54 54 55 55 55 55 56 56 56 56 56 56 56 56 56 56
38 39 41 42 43 44 44 45 46 46 47 47 48 49 50 51 51 52 53 53 54 54 55 55 56 56 57 57 57 57 56 56 56 56 55 55 55 55 55 55 55 55 55
40 42 43 44 45 46 47 47 48 48 49 50 51 52 52 52 53 53 54 55 56 56 56 57 57 58 58 58 58 57 57 55 54 54 54 54 54 54 53 53 53 53 53
43 44 45 46 47 48 49 49 50 50 51 52 52 53 53 54 54 55 55 56 57 57 57 57 57 57 56 55 54 54 54 53 52 52 52 52 52 52 52 51 51 51 51
45 46 47 48 49 50 50 51 51 52 52 53 54 54 54 55 55 56 56 56 56 56 56 55 54 54 53 52 52 51 51 50 49 49 48 48 48 48 48 48 48 48 48
47 48 49 49 50 51 51 52 53 53 54 54 54 54 54 55 56 56 56 55 55 54 54 53 52 51 50 50 50 49 48 47 46 46 46 45 45 45 45 45 45 45 45
48 49 49 50 51 51 52 52 53 53 54 54 54 54 55 55 55 55 54 54 53 52 51 50 49 49 49 49 48 47 47 46 45 44 44 44 43 43 43 42 41 41 42
48 49 50 50 50 51 52 52 53 53 53 54 54 54 54 54 54 53 52 51 50 50 49 48 48 47 47 47 47 46 45 44 43 43 43 42 41 41 40 39 38 39 39
49 49 49 50 50 51 51 52 52 52 52 52 52 53 53 52 52 50 49 49 48 48 47 47 47 46 46 45 44 43 42 42 42 42 41 40 39 38 38 37 37 37 37
Wind_Direction
264 270 278 283 293 301 304 309 315 319 323 325 326 327 329 330 330 331 331 332 332 332 330 328 323 318 313 310 304 296 292 286 282 277 271 266 263 263 262 258 257 256 254
268 276 281 282 287 294 299 302 308 312 314 317 319 319 320 321 322 322 322 321 322 321 319 318 316 313 309 305 302 295 290 287 284 281 277 272 268 266 265 264 263 262 260
269 275 279 283 288 292 295 298 302 307 309 311 313 314 314 315 315 314 311 311 313 314 312 310 308 307 305 302 299 296 291 287 285 282 279 276 273 271 269 268 267 266 265
272 275 279 282 286 289 292 295 298 302 305 307 308 311 311 311 310 309 307 306 307 307 306 304 303 303 301 299 296 294 291 288 286 283 280 278 275 273 272 270 269 269 269
271 275 279 282 284 287 290 293 295 298 301 303 304 305 306 306 306 306 305 304 303 302 301 300 299 298 298 297 294 292 290 287 285 283 281 279 277 275 273 272 270 270 270
274 277 280 283 285 286 288 291 294 295 297 299 300 300 301 302 302 302 301 301 300 300 299 296 295 294 294 293 291 290 289 288 286 283 282 280 278 276 275 273 271 270 270
277 280 282 284 285 287 289 291 293 295 296 297 298 298 298 300 300 300 299 299 299 298 298 296 293 292 291 291 290 290 289 288 286 284 282 281 279 277 276 274 273 272 270
280 282 283 285 286 287 290 292 294 295 295 296 297 297 297 297 297 297 297 297 297 296 295 294 293 291 289 289 288 288 288 288 287 285 284 282 281 279 276 274 273 273 272
283 284 286 287 286 287 289 291 293 294 294 296 296 295 296 296 295 294 294 294 294 294 293 292 292 291 289 288 287 287 287 286 286 286 285 283 281 279 277 275 273 272 271
285 286 287 288 287 287 289 290 291 292 293 294 295 294 294 294 294 294 294 294 293 292 291 291 291 290 289 288 287 287 286 286 285 284 284 282 281 279 278 276 274 272 270
286 287 288 288 288 288 290 290 291 291 292 293 294 294 294 294 293 293 293 293 293 292 291 290 289 289 288 288 287 286 286 285 284 283 282 281 280 280 279 277 275 272 270
286 287 288 289 289 290 290 290 291 292 292 293 294 294 293 293 293 292 292 292 292 292 291 290 289 288 288 287 287 286 285 284 283 282 282 281 281 280 279 278 276 273 271
286 287 289 289 289 290 290 290 291 292 292 293 294 294 294 293 293 292 292 292 292 292 292 291 290 289 288 287 286 286 285 284 283 282 282 281 280 279 278 277 275 273 271
287 288 289 290 290 290 291 292 292 292 292 293 294 294 294 294 293 293 293 293 293 293 292 292 292 290 289 287 287 286 285 284 283 282 281 280 279 278 277 276 274 271 270
288 289 289 290 290 291 292 293 293 293 294 294 294 294 294 293 293 292 293 294 294 294 293 292 292 291 289 288 287 286 285 285 284 283 282 281 279 278 277 275 273 270 270
289 290 290 290 291 292 293 294 294 295 295 295 294 294 294 294 293 293 294 294 295 295 294 293 293 292 290 289 287 286 285 285 284 284 283 282 280 279 277 275 272 270 270
289 290 291 292 293 294 295 295 295 295 296 296 295 295 295 294 294 295 295 295 295 295 294 293 293 292 291 290 288 286 285 285 285 284 283 281 280 279 277 275 273 271 270
290 290 292 293 294 295 296 296 296 297 297 297 296 296 295 295 295 296 295 295 295 295 294 293 293 292 291 290 289 287 285 285 285 284 282 281 280 279 278 276 273 272 270
290 291 292 294 295 296 297 297 298 298 297 297 297 296 296 296 296 296 296 296 295 295 294 294 293 292 291 290 289 287 286 285 284 283 282 281 280 279 278 276 274 272 271
290 292 293 294 295 296 297 298 298 298 298 298 297 297 297 296 296 296 296 296 296 296 295 294 293 293 292 290 289 288 286 285 284 283 282 281 280 279 278 276 274 273 271
291 292 293 294 296 297 297 298 298 298 298 298 298 298 297 297 297 297 296 296 296 295 296 295 294 294 293 291 290 289 287 286 284 284 282 280 279 278 277 275 274 273 270
291 292 294 295 296 297 297 298 298 298 298 298 299 299 298 298 297 297 297 297 296 295 295 295 294 294 292 291 291 290 288 286 285 285 283 281 280 279 277 275 274 273 270
292 293 294 295 296 296 297 297 298 298 298 299 299 299 299 299 298 298 298 297 297 296 295 295 294 294 293 292 292 290 288 287 286 286 283 281 281 280 278 276 274 272 270
293 294 295 296 296 296 297 298 298 299 299 300 300 300 300 300 300 300 299 298 297 297 296 295 295 294 294 293 292 291 289 288 286 286 284 281 280 279 277 275 274 272 269
293 295 295 296 296 297 298 299 299 300 300 300 300 300 300 300 300 300 300 298 297 296 296 295 295 295 294 293 292 291 289 287 286 285 283 281 279 279 277 275 275 273 270
294 295 296 297 298 298 299 300 301 301 301 301 301 301 301 301 301 301 300 299 299 298 297 296 296 296 295 294 293 291 289 287 286 285 282 280 279 278 277 275 275 273 271
Height
5869 5869 5868 5868 5867 5867 5866 5865 5864 5863 5862 5860 5858 5857 5855 5853 5851 5850 5848 5846 5844 5842 5841 5839 5838 5837 5835 5834 5833 5832 5831 5831 5830 5830 5830 5830 5830 5830 5830 5830 5831 5831 5832
5867 5867 5866 5866 5865 5865 5864 5863 5862 5861 5860 5858 5856 5855 5853 5851 5849 5848 5846 5844 5842 5841 5839 5837 5836 5834 5833 5832 5831 5830 5829 5828 5827 5827 5826 5826 5826 5826 5826 5826 5826 5826 5827
5864 5864 5864 5863 5863 5862 5862 5861 5860 5858 5857 5855 5854 5852 5851 5849 5847 5845 5843 5842 5840 5838 5836 5835 5833 5832 5830 5829 5827 5826 5825 5824 5823 5823 5822 5822 5821 5821 5821 5821 5821 5821 5821
5862 5861 5861 5861 5860 5859 5859 5858 5857 5855 5854 5852 5851 5849 5847 5846 5844 5842 5840 5838 5836 5834 5833 5831 5829 5828 5826 5824 5823 5822 5820 5819 5818 5818 5817 5816 5816 5815 5815 5815 5815 5815 5815
5858 5858 5857 5857 5857 5856 5855 5854 5853 5852 5850 5848 5847 5845 5843 5842 5840 5838 5836 5834 5832 5830 5828 5826 5825 5823 5821 5819 5818 5816 5815 5813 5812 5811 5810 5810 5809 5809 5808 5808 5808 5808 5807
5854 5854 5853 5853 5852 5852 5851 5850 5848 5847 5846 5844 5842 5840 5839 5837 5835 5833 5831 5829 5827 5825 5823 5821 5819 5817 5815 5813 5812 5810 5808 5807 5805 5804 5803 5802 5801 5801 5800 5800 5800 5800 5800
5850 5849 5848 5848 5847 5847 5846 5845 5843 5842 5841 5839 5837 5835 5833 5831 5829 5827 5825 5823 5821 5819 5816 5814 5812 5810 5809 5807 5805 5804 5802 5800 5798 5797 5795 5794 5793 5792 5791 5791 5790 5790 5790
5845 5844 5843 5843 5842 5841 5840 5839 5838 5836 5835 5833 5831 5828 5826 5824 5822 5820 5818 5816 5814 5811 5809 5807 5805 5803 5801 5799 5798 5796 5794 5792 5790 5788 5787 5785 5784 5783 5781 5781 5780 5780 5780
5840 5839 5838 5837 5836 5835 5834 5833 5831 5829 5828 5825 5823 5821 5819 5817 5815 5812 5810 5808 5806 5803 5801 5799 5797 5795 5793 5791 5789 5787 5785 5783 5781 5779 5777 5775 5773 5772 5771 5770 5770 5769 5770
5835 5834 5833 5832 5830 5829 5828 5826 5824 5822 5820 5818 5816 5813 5811 5809 5806 5804 5801 5799 5797 5794 5792 5790 5788 5786 5783 5781 5779 5777 5775 5773 5771 5769 5766 5764 5762 5761 5760 5759 5758 5758 5758
5830 5828 5827 5825 5824 5822 5820 5818 5816 5814 5812 5810 5807 5805 5802 5800 5797 5795 5792 5789 5786 5784 5781 5779 5777 5774 5772 5769 5767 5765 5763 5761 5759 5757 5755 5753 5751 5749 5747 5746 5745 5745 5746
5824 5822 5820 5818 5817 5815 5813 5810 5808 5806 5804 5801 5799 5796 5793 5790 5787 5784 5781 5778 5775 5773 5770 5767 5765 5762 5760 5757 5754 5752 5750 5748 5746 5744 5742 5740 5738 5736 5734 5733 5732 5731 5732
5817 5815 5813 5811 5809 5807 5804 5802 5799 5797 5794 5791 5789 5786 5783 5780 5776 5773 5770 5767 5764 5761 5758 5755 5752 5749 5746 5743 5741 5738 5736 5733 5731 5730 5728 5726 5724 5722 5720 5719 5717 5717 5717
5809 5807 5805 5802 5800 5798 5795 5793 5790 5787 5784 5781 5778 5774 5771 5768 5765 5761 5758 5755 5751 5748 5744 5741 5738 5734 5731 5728 5726 5723 5720 5718 5715 5713 5712 5710 5708 5706 5704 5703 5701 5701 5702
5800 5798 5796 5793 5791 5788 5786 5783 5779 5776 5772 5769 5766 5762 5759 5756 5752 5748 5744 5741 5738 5734 5730 5727 5724 5720 5717 5713 5710 5707 5704 5702 5699 5697 5694 5692 5690 5688 5687 5685 5684 5684 5684
5791 5789 5786 5784 5781 5778 5775 5772 5768 5764 5761 5756 5752 5749 5745 5742 5738 5735 5731 5727 5723 5719 5715 5712 5708 5704 5701 5697 5694 5691 5688 5685 5683 5680 5677 5674 5672 5670 5668 5667 5665 5665 5666
5781 5779 5776 5773 5770 5767 5763 5760 5756 5753 5748 5744 5740 5735 5732 5728 5724 5721 5717 5713 5708 5704 5700 5696 5692 5688 5684 5680 5677 5674 5671 5668 5665 5662 5659 5656 5653 5651 5649 5648 5647 5646 5646
5771 5768 5765 5762 5758 5755 5751 5747 5743 5739 5736 5731 5727 5722 5718 5714 5710 5706 5701 5697 5693 5688 5683 5679 5675 5671 5667 5663 5659 5656 5652 5649 5646 5643 5639 5637 5634 5632 5630 5628 5627 5626 5626
5760 5757 5753 5750 5746 5742 5738 5734 5730 5725 5721 5717 5713 5709 5704 5699 5695 5690 5685 5681 5676 5672 5667 5662 5657 5653 5648 5644 5640 5636 5633 5629 5626 5623 5620 5617 5615 5612 5610 5609 5607 5607 5606
5748 5745 5741 5738 5734 5730 5725 5721 5716 5712 5707 5702 5698 5693 5688 5684 5679 5674 5669 5664 5659 5654 5649 5644 5639 5634 5629 5624 5620 5616 5612 5609 5606 5603 5600 5598 5595 5593 5591 5590 5588 5588 5587
5736 5733 5729 5725 5720 5716 5711 5707 5702 5697 5693 5688 5683 5677 5672 5667 5662 5657 5652 5647 5641 5636 5631 5626 5620 5615 5610 5605 5601 5597 5593 5590 5587 5583 5581 5579 5576 5575 5573 5571 5570 5569 5568
5723 5719 5715 5711 5706 5702 5697 5692 5687 5682 5677 5672 5667 5662 5656 5650 5645 5640 5635 5629 5623 5618 5612 5607 5603 5597 5592 5588 5584 5580 5576 5572 5569 5566 5563 5561 5559 5557 5555 5553 5552 5551 5551
5709 5705 5701 5696 5692 5687 5682 5677 5672 5667 5662 5656 5651 5645 5640 5634 5628 5623 5617 5611 5606 5601 5595 5590 5585 5581 5576 5571 5567 5563 5559 5556 5553 5550 5547 5545 5542 5540 5539 5537 5536 5535 5534
5695 5691 5686 5681 5677 5672 5667 5662 5657 5651 5645 5640 5634 5629 5623 5617 5611 5606 5600 5594 5589 5584 5579 5574 5569 5565 5560 5555 5551 5547 5543 5539 5536 5533 5531 5529 5527 5525 5523 5521 5520 5519 5518
5680 5676 5671 5666 5662 5657 5652 5647 5641 5635 5630 5624 5618 5613 5607 5601 5595 5589 5583 5578 5573 5568 5563 5558 5554 5549 5545 5540 5535 5531 5528 5524 5521 5518 5515 5513 5512 5510 5508 5507 5506 5505 5504
5665 5661 5656 5651 5647 5642 5636 5631 5626 5620 5614 5608 5602 5597 5591 5585 5579 5574 5568 5563 5557 5553 5548 5543 5539 5534 5530 5525 5521 5517 5513 5510 5506 5503 5501 5499 5498 5497 5495 5493 5493 5491 5491